KT2UU-13 Weather Reports


time (UTC)temp
C
wind
direction
speed
KPH
gust
KPH
rain 1hr
cm
rain 24hr
cm
rain mn
cm
humidity
%
barometer
mb
20240222104927 8 92 3.2 6.4 0.00 0.00 0.00 58 1019.4
20240222104426 7 84 0.0 1.6 0.00 0.00 0.00 59 1019.1
20240222103924 8 84 0.0 0.0 0.00 0.00 0.00 59 1019.3
20240222103423 8 84 0.0 3.2 0.00 0.00 0.00 58 1019.2
20240222102921 8 86 1.6 1.6 0.00 0.00 0.00 58 1019.4
20240222102420 8 89 1.6 1.6 0.00 0.00 0.00 57 1019.3
20240222101918 8 89 1.6 3.2 0.00 0.00 0.00 56 1019.4
20240222101418 8 83 1.6 3.2 0.00 0.00 0.00 56 1019.6
20240222100917 8 80 1.6 3.2 0.00 0.00 0.00 57 1019.3
20240222100415 8 63 0.0 1.6 0.00 0.00 0.00 57 1019.4
20240222095913 8 62 0.0 3.2 0.00 0.00 0.00 57 1019.5
20240222095412 8 51 0.0 1.6 0.00 0.00 0.00 57 1019.3
20240222094913 8 325 0.0 0.0 0.00 0.00 0.00 58 1019.4
20240222094411 8 325 0.0 0.0 0.00 0.00 0.00 57 1019.5
20240222093909 8 325 0.0 0.0 0.00 0.00 0.00 56 1019.4
20240222093409 9 325 0.0 1.6 0.00 0.00 0.00 55 1019.4
20240222092906 9 324 0.0 1.6 0.00 0.00 0.00 54 1019.4
20240222092405 9 83 0.0 1.6 0.00 0.00 0.00 54 1019.4
20240222091904 9 100 0.0 1.6 0.00 0.00 0.00 54 1019.4
20240222091404 10 89 0.0 1.6 0.00 0.00 0.00 53 1019.5
20240222090902 10 193 3.2 4.8 0.00 0.00 0.00 52 1019.4
20240222090401 9 117 0.0 1.6 0.00 0.00 0.00 53 1019.3
20240222085900 9 138 0.0 1.6 0.00 0.00 0.00 53 1019.6
20240222085358 9 78 0.0 1.6 0.00 0.00 0.00 52 1019.7
20240222084857 9 80 1.6 1.6 0.00 0.00 0.00 53 1019.6
20240222084355 9 84 0.0 0.0 0.00 0.00 0.00 53 1019.7
20240222083854 8 141 0.0 1.6 0.00 0.00 0.00 54 1019.8
20240222083353 8 141 0.0 0.0 0.00 0.00 0.00 54 1019.8
20240222082852 9 141 0.0 1.6 0.00 0.00 0.00 52 1019.8
20240222082350 10 143 0.0 1.6 0.00 0.00 0.00 51 1019.8
20240222081849 10 105 0.0 0.0 0.00 0.00 0.00 52 1019.8
20240222081347 10 156 0.0 1.6 0.00 0.00 0.00 50 1019.9
20240222080245 10 124 0.0 1.6 0.00 0.00 0.00 51 1019.9
20240222075744 10 78 0.0 1.6 0.00 0.00 0.00 51 1020.3
20240222075243 10 78 0.0 1.6 0.00 0.00 0.00 50 1020.1
20240222074742 10 78 0.0 1.6 0.00 0.00 0.00 50 1020.2
20240222074242 10 86 0.0 0.0 0.00 0.00 0.00 51 1020.3
20240222073741 10 216 0.0 4.8 0.00 0.00 0.00 49 1020.3
20240222073240 10 208 0.0 1.6 0.00 0.00 0.00 49 1020.3
20240222072738 10 151 1.6 3.2 0.00 0.00 0.00 51 1020.2
20240222072237 10 88 0.0 1.6 0.00 0.00 0.00 51 1020.0
20240222071735 9 84 0.0 1.6 0.00 0.00 0.00 51 1020.2
20240222071235 9 70 0.0 1.6 0.00 0.00 0.00 52 1020.0
20240222070735 9 78 1.6 3.2 0.00 0.00 0.00 52 1020.3
20240222070233 9 90 0.0 3.2 0.00 0.00 0.00 52 1020.0
20240222065731 9 93 0.0 3.2 0.00 0.00 0.00 52 1020.2
20240222065231 9 83 1.6 3.2 0.00 0.00 0.00 51 1020.3
20240222064730 9 81 3.2 4.8 0.00 0.00 0.00 50 1020.3
20240222064230 9 87 1.6 1.6 0.00 0.00 0.00 51 1020.1
20240222063728 9 85 1.6 1.6 0.00 0.00 0.00 51 1020.2
20240222063227 8 111 0.0 0.0 0.00 0.00 0.00 53 1020.6
20240222062726 8 111 0.0 1.6 0.00 0.00 0.00 53 1020.4
20240222062225 8 138 0.0 1.6 0.00 0.00 0.00 52 1020.5
20240222061725 9 138 0.0 0.0 0.00 0.00 0.00 51 1020.4
20240222061225 10 138 0.0 0.0 0.00 0.00 0.00 50 1020.4
20240222060724 9 108 0.0 1.6 0.00 0.00 0.00 49 1020.5
20240222060224 9 86 0.0 0.0 0.00 0.00 0.00 50 1020.5
20240222055724 9 85 0.0 0.0 0.00 0.00 0.00 49 1020.6
20240222055222 10 85 0.0 0.0 0.00 0.00 0.00 49 1020.5
20240222054720 10 85 0.0 1.6 0.00 0.00 0.00 48 1020.6
20240222054219 10 84 0.0 1.6 0.00 0.00 0.00 48 1020.4
20240222053718 10 100 0.0 3.2 0.00 0.00 0.00 47 1020.3
20240222053217 10 84 0.0 1.6 0.00 0.00 0.00 48 1020.3
20240222052716 10 88 0.0 1.6 0.00 0.00 0.00 47 1020.1
20240222052214 11 88 0.0 4.8 0.00 0.00 0.00 46 1020.3
20240222051713 11 93 3.2 4.8 0.00 0.00 0.00 46 1020.4
20240222051211 11 97 3.2 4.8 0.00 0.00 0.00 45 1020.5
20240222050710 11 72 1.6 4.8 0.00 0.00 0.00 45 1020.6
20240222050207 11 81 0.0 3.2 0.00 0.00 0.00 45 1020.8
20240222045706 11 92 1.6 3.2 0.00 0.00 0.00 45 1020.8
20240222045203 11 87 0.0 1.6 0.00 0.00 0.00 46 1020.8
20240222044703 11 77 0.0 3.2 0.00 0.00 0.00 45 1020.9
20240222044200 10 78 0.0 1.6 0.00 0.00 0.00 47 1020.8
20240222043658 10 78 1.6 1.6 0.00 0.00 0.00 47 1021.0
20240222043157 10 78 0.0 1.6 0.00 0.00 0.00 47 1021.2
20240222042656 10 78 0.0 0.0 0.00 0.00 0.00 46 1021.2
20240222042154 10 77 0.0 0.0 0.00 0.00 0.00 46 1021.3
20240222041653 11 78 0.0 1.6 0.00 0.00 0.00 46 1021.2
20240222041152 11 77 0.0 1.6 0.00 0.00 0.00 45 1021.3
20240222040651 10 80 0.0 0.0 0.00 0.00 0.00 46 1021.4
20240222040149 10 87 0.0 1.6 0.00 0.00 0.00 47 1021.5
20240222035648 10 94 0.0 1.6 0.00 0.00 0.00 46 1021.7
20240222035148 11 157 0.0 0.0 0.00 0.00 0.00 46 1021.5
20240222034647 10 74 0.0 0.0 0.00 0.00 0.00 45 1021.5
20240222034146 11 74 0.0 0.0 0.00 0.00 0.00 45 1021.5
20240222033645 11 72 0.0 1.6 0.00 0.00 0.00 44 1021.6
20240222033144 11 53 0.0 1.6 0.00 0.00 0.00 45 1021.6
20240222032642 11 82 0.0 0.0 0.00 0.00 0.00 45 1021.6
20240222032141 11 82 0.0 1.6 0.00 0.00 0.00 44 1021.4
20240222031639 11 81 0.0 0.0 0.00 0.00 0.00 44 1021.8
20240222031138 11 80 0.0 1.6 0.00 0.00 0.00 44 1021.5
20240222030636 11 168 0.0 0.0 0.00 0.00 0.00 44 1021.6
20240222030132 11 168 0.0 0.0 0.00 0.00 0.00 44 1021.5
20240222025630 12 168 0.0 1.6 0.00 0.00 0.00 42 1021.6
20240222025128 12 168 0.0 1.6 0.00 0.00 0.00 42 1021.6
20240222024626 11 146 0.0 0.0 0.00 0.00 0.00 43 1021.2
20240222024126 12 146 0.0 1.6 0.00 0.00 0.00 42 1021.3
20240222023625 12 146 0.0 1.6 0.00 0.00 0.00 41 1021.5
20240222023125 12 121 0.0 1.6 0.00 0.00 0.00 41 1021.4
20240222022624 11 92 0.0 1.6 0.00 0.00 0.00 42 1021.4
20240222022123 12 91 0.0 0.0 0.00 0.00 0.00 42 1021.3
20240222021624 12 85 0.0 0.0 0.00 0.00 0.00 41 1021.3
20240222021123 12 72 0.0 1.6 0.00 0.00 0.00 41 1021.3
20240222020622 12 72 0.0 1.6 0.00 0.00 0.00 40 1021.2
20240222020123 13 72 0.0 1.6 0.00 0.00 0.00 40 1021.3
20240222015621 13 86 0.0 0.0 0.00 0.00 0.00 40 1021.3
20240222015120 12 67 0.0 1.6 0.00 0.00 0.00 39 1021.1
20240222014618 13 99 0.0 0.0 0.00 0.00 0.00 40 1021.3
20240222014117 13 89 0.0 0.0 0.00 0.00 0.00 40 1021.3
20240222013615 13 86 0.0 0.0 0.00 0.00 0.00 39 1021.0
20240222013114 13 93 0.0 3.2 0.00 0.00 0.00 39 1021.3
20240222012613 13 226 1.6 3.2 0.00 0.00 0.00 38 1021.1
20240222012113 13 83 0.0 3.2 0.00 0.00 0.00 39 1021.4
20240222011611 13 89 0.0 1.6 0.00 0.00 0.00 39 1021.3
20240222011110 13 101 0.0 1.6 0.00 0.00 0.00 39 1021.6
20240222010610 13 122 0.0 1.6 0.00 0.00 0.00 39 1021.7
20240222010108 13 91 1.6 3.2 0.00 0.00 0.00 39 1021.8
20240222005606 13 106 0.0 0.0 0.00 0.00 0.00 40 1021.5
20240222005105 12 96 0.0 1.6 0.00 0.00 0.00 40 1021.6
20240222004605 12 175 0.0 1.6 0.00 0.00 0.00 41 1021.6
20240222004103 12 109 0.0 0.0 0.00 0.00 0.00 41 1021.6
20240222003602 12 109 0.0 0.0 0.00 0.00 0.00 40 1021.7
20240222003102 13 102 0.0 0.0 0.00 0.00 0.00 40 1021.8
20240222002601 13 102 0.0 0.0 0.00 0.00 0.00 39 1021.6
20240222002059 13 75 0.0 1.6 0.00 0.00 0.00 39 1021.7
20240222001555 13 74 0.0 0.0 0.00 0.00 0.00 41 1021.6
20240222001053 13 75 0.0 0.0 0.00 0.00 0.00 40 1021.6
20240222000552 13 75 0.0 1.6 0.00 0.00 0.00 39 1021.6
20240222000050 14 74 0.0 0.0 0.00 0.00 0.00 38 1021.6
20240221235549 14 75 0.0 1.6 0.00 0.00 0.00 37 1021.7
20240221235047 15 92 0.0 3.2 0.00 0.00 0.00 37 1021.6
20240221234544 14 91 1.6 1.6 0.00 0.00 0.00 36 1021.7
20240221234042 15 81 0.0 1.6 0.00 0.00 0.00 37 1021.8
20240221233540 15 83 0.0 0.0 0.00 0.00 0.00 36 1021.8
20240221233038 15 83 0.0 1.6 0.00 0.00 0.00 36 1021.8
20240221232536 15 83 0.0 0.0 0.00 0.00 0.00 35 1021.8
20240221232035 16 83 0.0 1.6 0.00 0.00 0.00 34 1021.9
20240221231533 16 83 0.0 1.6 0.00 0.00 0.00 34 1022.0
20240221231020 16 85 0.0 1.6 0.00 0.00 0.00 33 1022.1
20240221230519 16 88 1.6 1.6 0.00 0.00 0.00 32 1022.1
20240221230018 16 88 0.0 1.6 0.00 0.00 0.00 32 1022.0
20240221225516 17 77 1.6 3.2 0.00 0.00 0.00 32 1021.9
20240221225016 17 84 1.6 3.2 0.00 0.00 0.00 32 1021.9
20240221224515 17 115 0.0 1.6 0.00 0.00 0.00 31 1021.9
20240221224013 18 149 0.0 1.6 0.00 0.00 0.00 31 1022.2
20240221223513 18 182 1.6 1.6 0.00 0.00 0.00 29 1022.1
20240221223011 18 215 0.0 3.2 0.00 0.00 0.00 31 1022.0
20240221222508 18 223 3.2 4.8 0.00 0.00 0.00 29 1022.1
20240221222006 18 115 0.0 0.0 0.00 0.00 0.00 30 1022.3
20240221221506 18 237 0.0 3.2 0.00 0.00 0.00 29 1022.1
20240221221001 18 72 1.6 1.6 0.00 0.00 0.00 30 1022.2
20240221220501 19 81 0.0 1.6 0.00 0.00 0.00 30 1022.3
20240221215959 19 212 3.2 4.8 0.00 0.00 0.00 27 1022.3
20240221215457 19 248 6.4 6.4 0.00 0.00 0.00 27 1022.3
20240221214958 18 77 0.0 3.2 0.00 0.00 0.00 29 1022.2
20240221214457 19 233 8.0 9.7 0.00 0.00 0.00 27 1022.3
20240221213956 19 209 1.6 6.4 0.00 0.00 0.00 28 1022.5
20240221213455 19 239 1.6 3.2 0.00 0.00 0.00 28 1022.6
20240221212956 19 206 3.2 4.8 0.00 0.00 0.00 28 1022.7
20240221212455 18 90 3.2 6.4 0.00 0.00 0.00 28 1022.6
20240221211954 19 80 0.0 1.6 0.00 0.00 0.00 28 1022.8
20240221211453 19 64 1.6 3.2 0.00 0.00 0.00 28 1022.8
20240221210953 18 159 0.0 6.4 0.00 0.00 0.00 27 1022.8
20240221210452 18 225 1.6 6.4 0.00 0.00 0.00 28 1023.0
20240221205951 19 221 8.0 12.9 0.00 0.00 0.00 27 1023.0
20240221205451 19 251 3.2 4.8 0.00 0.00 0.00 28 1023.1
20240221204949 19 231 3.2 3.2 0.00 0.00 0.00 28 1023.1
20240221204447 19 207 1.6 6.4 0.00 0.00 0.00 27 1023.2
20240221203946 18 208 3.2 9.7 0.00 0.00 0.00 26 1023.2
20240221203445 19 242 1.6 1.6 0.00 0.00 0.00 27 1023.3
20240221202943 18 217 3.2 14.5 0.00 0.00 0.00 29 1023.3
20240221202442 18 245 4.8 6.4 0.00 0.00 0.00 29 1023.4
20240221201942 18 245 3.2 6.4 0.00 0.00 0.00 27 1023.3
20240221201440 18 229 6.4 12.9 0.00 0.00 0.00 29 1023.5
20240221200940 20 200 3.2 9.7 0.00 0.00 0.00 27 1023.7
20240221200438 19 70 1.6 4.8 0.00 0.00 0.00 28 1023.4
20240221195936 19 229 6.4 6.4 0.00 0.00 0.00 28 1023.8
20240221195435 18 139 0.0 3.2 0.00 0.00 0.00 27 1023.7
20240221194935 18 239 4.8 11.3 0.00 0.00 0.00 28 1023.9
20240221194434 19 221 1.6 4.8 0.00 0.00 0.00 29 1024.0
20240221193933 18 205 1.6 3.2 0.00 0.00 0.00 28 1023.9
20240221193431 18 279 6.4 11.3 0.00 0.00 0.00 28 1024.2
20240221192930 17 215 6.4 14.5 0.00 0.00 0.00 32 1024.2
20240221192427 18 184 1.6 4.8 0.00 0.00 0.00 30 1024.3
20240221191926 18 264 0.0 9.7 0.00 0.00 0.00 28 1024.2
20240221191424 18 78 3.2 3.2 0.00 0.00 0.00 28 1024.3
20240221190922 18 245 0.0 9.7 0.00 0.00 0.00 29 1024.4
20240221190422 18 206 3.2 9.7 0.00 0.00 0.00 28 1024.4
20240221185921 17 187 1.6 3.2 0.00 0.00 0.00 29 1024.5
20240221185419 17 253 11.3 14.5 0.00 0.00 0.00 29 1024.7
20240221184918 17 239 1.6 9.7 0.00 0.00 0.00 29 1024.9
20240221184417 17 66 3.2 4.8 0.00 0.00 0.00 29 1025.0
20240221183916 17 229 3.2 4.8 0.00 0.00 0.00 29 1025.0
20240221183415 17 71 3.2 11.3 0.00 0.00 0.00 31 1025.1
20240221182914 17 112 1.6 4.8 0.00 0.00 0.00 29 1025.1
20240221182412 17 217 4.8 6.4 0.00 0.00 0.00 28 1025.3
20240221181910 16 229 0.0 3.2 0.00 0.00 0.00 27 1025.4
20240221181410 16 222 3.2 6.4 0.00 0.00 0.00 28 1025.6
20240221180908 17 242 6.4 9.7 0.00 0.00 0.00 29 1025.7
20240221180407 17 230 1.6 6.4 0.00 0.00 0.00 29 1026.0
20240221175905 17 124 1.6 11.3 0.00 0.00 0.00 31 1026.3
20240221175404 17 189 9.7 12.9 0.00 0.00 0.00 29 1026.4
20240221174902 17 90 4.8 4.8 0.00 0.00 0.00 29 1026.4
20240221174401 16 250 3.2 4.8 0.00 0.00 0.00 29 1026.6
20240221173900 16 256 11.3 12.9 0.00 0.00 0.00 28 1026.6
20240221173358 16 261 1.6 11.3 0.00 0.00 0.00 27 1026.8
20240221172856 16 205 6.4 6.4 0.00 0.00 0.00 28 1026.6
20240221172353 16 242 8.0 12.9 0.00 0.00 0.00 27 1026.7
20240221171834 16 226 4.8 9.7 0.00 0.00 0.00 28 1027.1
20240221171333 16 214 3.2 9.7 0.00 0.00 0.00 31 1026.9
20240221170832 16 217 1.6 9.7 0.00 0.00 0.00 27 1027.1
20240221170330 15 242 6.4 9.7 0.00 0.00 0.00 30 1027.2
20240221165828 15 232 3.2 11.3 0.00 0.00 0.00 31 1027.3
20240221165327 15 239 3.2 9.7 0.00 0.00 0.00 30 1027.5
20240221164811 15 137 0.0 4.8 0.00 0.00 0.00 29 1027.3
20240221164310 15 98 3.2 4.8 0.00 0.00 0.00 29 1027.4
20240221163809 15 206 0.0 3.2 0.00 0.00 0.00 33 1027.6
20240221163307 14 198 0.0 4.8 0.00 0.00 0.00 36 1027.6
20240221162806 14 223 0.0 3.2 0.00 0.00 0.00 37 1027.6
20240221162305 14 221 0.0 1.6 0.00 0.00 0.00 37 1027.7
20240221161750 13 221 4.8 4.8 0.00 0.00 0.00 37 1027.8
20240221161249 14 259 4.8 6.4 0.00 0.00 0.00 37 1028.0
20240221160749 13 207 0.0 4.8 0.00 0.00 0.00 36 1028.0
20240221160247 13 100 1.6 4.8 0.00 0.00 0.00 38 1028.2
20240221155746 13 87 3.2 4.8 0.00 0.00 0.00 38 1028.1
20240221155244 12 71 4.8 12.9 0.00 0.00 0.00 38 1028.1
20240221154742 13 123 1.6 6.4 0.00 0.00 0.00 39 1028.2
20240221154240 13 160 1.6 3.2 0.00 0.00 0.00 40 1028.3
20240221153740 12 242 1.6 1.6 0.00 0.00 0.00 40 1028.5
20240221153237 11 87 1.6 3.2 0.00 0.00 0.00 41 1028.5
20240221152736 11 301 0.0 3.2 0.00 0.00 0.00 45 1028.5
20240221152235 11 255 1.6 3.2 0.00 0.00 0.00 45 1028.3
20240221151734 10 254 0.0 3.2 0.00 0.00 0.00 47 1028.3
20240221151234 10 259 1.6 1.6 0.00 0.00 0.00 47 1028.5
20240221150733 9 265 0.0 1.6 0.00 0.00 0.00 49 1028.6
20240221150233 9 267 1.6 1.6 0.00 0.00 0.00 50 1028.6
20240221145732 8 266 3.2 3.2 0.00 0.00 0.00 51 1028.4
20240221145231 8 262 3.2 4.8 0.00 0.00 0.00 53 1028.6
20240221144730 8 255 0.0 1.6 0.00 0.00 0.00 52 1028.3
20240221144228 8 254 0.0 3.2 0.00 0.00 0.00 54 1028.3
20240221143726 7 261 0.0 3.2 0.00 0.00 0.00 55 1028.0
20240221143224 7 258 1.6 3.2 0.00 0.00 0.00 55 1028.4
20240221142724 7 306 0.0 1.6 0.00 0.00 0.00 56 1028.4
20240221142224 6 244 1.6 1.6 0.00 0.00 0.00 54 1028.4
20240221141724 7 244 1.6 1.6 0.00 0.00 0.00 57 1028.3
20240221141224 6 243 0.0 0.0 0.00 0.00 0.00 60 1028.3
20240221140724 5 243 0.0 0.0 0.00 0.00 0.00 60 1028.3
20240221140224 5 243 0.0 0.0 0.00 0.00 0.00 61 1028.3
20240221135722 5 243 0.0 0.0 0.00 0.00 0.00 62 1028.1
20240221135223 5 243 0.0 0.0 0.00 0.00 0.00 64 1028.1
20240221134721 5 243 0.0 0.0 0.00 0.00 0.00 64 1028.0
20240221134220 3 243 0.0 0.0 0.00 0.00 0.00 67 1028.0
20240221133718 3 243 0.0 0.0 0.00 0.00 0.00 67 1028.0
20240221133216 2 243 0.0 0.0 0.00 0.00 0.00 68 1028.2
20240221132715 2 243 0.0 0.0 0.00 0.00 0.00 70 1027.8
20240221132214 1 243 0.0 0.0 0.00 0.00 0.00 74 1027.6
20240221131713 1 243 0.0 0.0 0.00 0.00 0.00 76 1027.5
20240221131212 0 243 0.0 0.0 0.00 0.00 0.00 75 1027.4
20240221130711 1 243 0.0 0.0 0.00 0.00 0.00 73 1027.3
20240221130209 1 243 0.0 0.0 0.00 0.00 0.00 74 1027.0
20240221125709 0 243 0.0 0.0 0.00 0.00 0.00 79 1027.1
20240221125207 0 243 0.0 0.0 0.00 0.00 0.00 81 1027.2
20240221124707 -1 243 0.0 0.0 0.00 0.00 0.00 81 1027.1
20240221124206 -1 243 0.0 0.0 0.00 0.00 0.00 82 1027.4
20240221123705 -1 243 0.0 0.0 0.00 0.00 0.00 83 1027.1
20240221123206 -1 243 0.0 0.0 0.00 0.00 0.00 83 1027.3
20240221122704 -1 243 0.0 0.0 0.00 0.00 0.00 82 1027.4
20240221122202 -1 243 0.0 0.0 0.00 0.00 0.00 81 1027.2
20240221121701 -1 243 0.0 0.0 0.00 0.00 0.00 81 1027.2
20240221121201 -1 243 0.0 0.0 0.00 0.00 0.00 80 1027.2
20240221120700 -1 243 0.0 0.0 0.00 0.00 0.00 81 1027.0
20240221120156 -1 243 0.0 0.0 0.00 0.00 0.00 82 1026.9
20240221115655 -1 243 0.0 0.0 0.00 0.00 0.00 81 1026.9
20240221115153 -1 243 0.0 0.0 0.00 0.00 0.00 81 1026.7
20240221114652 -1 243 0.0 0.0 0.00 0.00 0.00 81 1026.8
20240221114151 -1 243 0.0 0.0 0.00 0.00 0.00 82 1026.9
20240221113650 -1 243 0.0 0.0 0.00 0.00 0.00 80 1026.7
20240221113149 -1 243 0.0 0.0 0.00 0.00 0.00 81 1026.7
20240221112648 -1 243 0.0 0.0 0.00 0.00 0.00 81 1026.7
20240221112147 -1 243 0.0 0.0 0.00 0.00 0.00 81 1026.9
20240221111645 -1 243 0.0 0.0 0.00 0.00 0.00 81 1026.7
20240221111143 -1 243 0.0 0.0 0.00 0.00 0.00 78 1026.7
20240221110642 -1 243 0.0 0.0 0.00 0.00 0.00 79 1026.6
20240221110140 -1 243 0.0 0.0 0.00 0.00 0.00 82 1026.7
20240221105639 -1 243 0.0 0.0 0.00 0.00 0.00 81 1026.5
20240221105139 -1 243 0.0 0.0 0.00 0.00 0.00 80 1026.5